This is the latest recevied weather packets stored in our database for station/object MB7UKB-10. If no packets are shown the sender has not sent any weather packets the latest 10 day(s).
| Time | Temp. | Humidity | Pressure | Rain* | Wind** | Luminosity | Snow |
|---|---|---|---|---|---|---|---|
| 1788092127 | 21.67° C | 59% | 1008.7 hPa | 0 mm | - | - | - |
| 1788090326 | 21.67° C | 63% | 1008.8 hPa | 0 mm | - | - | - |
| 1788088526 | 22.22° C | 59% | 1009 hPa | 0 mm | - | - | - |
| 1788086727 | 21.11° C | 65% | 1009.6 hPa | 0 mm | - | - | - |
| 1788084927 | 20.56° C | 68% | 1009.9 hPa | 0 mm | - | - | - |
| 1788083127 | 20° C | 69% | 1010.2 hPa | 0 mm | - | - | - |
| 1788081327 | 20.56° C | 68% | 1010.1 hPa | 0 mm | - | - | - |
| 1788077727 | 18.33° C | 77% | 1009.9 hPa | 0 mm | - | - | - |
| 1788075932 | 17.78° C | 79% | 1010.1 hPa | 0 mm | - | - | - |
| 1788074127 | 17.22° C | 83% | 1009.9 hPa | 0 mm | - | - | - |
| 1788072326 | 16.11° C | 87% | 1009.6 hPa | 0 mm | - | - | - |
| 1788070527 | 15.56° C | 89% | 1009.2 hPa | 0 mm | - | - | - |
| 1788068726 | 16.11° C | 89% | 1009.2 hPa | 0 mm | - | - | - |
| 1788065127 | 15.56° C | 90% | 1008.7 hPa | 0 mm | - | - | - |
| 1788063327 | 15.56° C | 91% | 1008.4 hPa | 0 mm | - | - | - |
| 1788061526 | 15.56° C | 90% | 1008.2 hPa | 0 mm | - | - | - |
| 1788059726 | 15.56° C | 89% | 1008.1 hPa | 0 mm | - | - | - |
| 1788057926 | 15.56° C | 88% | 1008.1 hPa | 0 mm | - | - | - |
| 1788056126 | 16.11° C | 87% | 1007.7 hPa | 0 mm | - | - | - |
| 1788054327 | 16.11° C | 86% | 1007.5 hPa | 0 mm | - | - | - |
| 1788052527 | 16.11° C | 84% | 1007.2 hPa | 0 mm | - | - | - |
| 1788050726 | 16.67° C | 82% | 1007 hPa | 0 mm | - | - | - |
| 1788048927 | 17.22° C | 81% | 1006.5 hPa | 0 mm | - | - | - |
| 1788047127 | 17.22° C | 83% | 1006 hPa | 0 mm | - | - | - |
| 1788045326 | 17.22° C | 86% | 1005.7 hPa | 0 mm | - | - | - |
* Rain latest hour (hover to see other rain measurements)
** Current wind speed in m/s (hover to see current wind gust speed)